Location: Unspecified
(0.0000°N, 0.0000°E)
Time: 10:58:54
(UTC+01:00)

ADEOS II - Visible Passes

Search period start: 21 December 2014 00:00
Search period end: 31 December 2014 00:00
Orbit: 800 x 803 km, 98.3° (Epoch: 20 December)

Date Brightness Start Highest point End Pass type
(mag) Time Alt. Az. Time Alt. Az. Time Alt. Az.
21 Dec 4.7 05:38:43 10° NE 05:42:41 22° ESE 05:46:38 10° SSE visible
22 Dec 5.1 19:29:36 10° SW 19:32:56 17° WSW 19:36:16 10° WNW visible
23 Dec 2.2 06:24:54 10° NNE 06:30:08 83° ESE 06:35:24 10° S visible
24 Dec 3.6 05:59:15 10° NE 06:04:08 40° ESE 06:09:01 10° S visible
25 Dec 4.8 05:34:26 10° ENE 05:38:08 20° ESE 05:41:50 10° SSE visible
26 Dec 5.1 19:24:44 10° SSW 19:28:23 19° WSW 19:32:01 10° WNW visible
27 Dec 2.4 06:20:21 10° NNE 06:25:34 75° ESE 06:30:49 10° S visible
28 Dec 3.8 05:54:48 10° NE 05:59:34 36° ESE 06:04:20 10° SSE visible
29 Dec 5.0 05:30:09 10° ENE 05:33:34 18° ESE 05:36:59 10° SE visible
30 Dec 5.0 19:19:54 10° SSW 19:23:48 21° WSW 19:27:43 10° NW visible
